Welcome to Northern Hawkes Bay. New Zealand.
PWS Header
      nz Flag



Hit Counter


W3C Valid W3C Valid logo


    Wairoa

Select any of the Stations below to visit their websites.










Historic Data from Weather Underground
Select the location of interest below. Wairoa is the default. Please have patience, this Data is slow to load in.
Northern Hawkes Bay Historical Data
Daily Summary for January 1, 2017 Units:  English    Metric   Both
« Previous Day
Next Day »
Daily Weekly Monthly Yearly Custom
  High: Low: Average:
Temperature: 76.6 °F 60.1 °F 68.4 °F
Dew Point: 62.8 °F 54.7 °F 58.1 °F
Humidity: 97% 53% 71%
Wind Speed: 15.2mph 0.7mph 7.5mph
Wind Gust: 26.6mph - -
Wind- - West
Pressure: 30 in 29.7 in -
Precipitation: 0.08 in    
Historical Graphs
 
 
Tabular Data for January 1, 2017
Time Temperature Dew Point Pressure Wind Wind Speed Wind Gust Humidity Rainfall Rate (Hourly) solar
00:02 74.1 °F 57.6 °F 29.7 in NNW 13 mph 19 mph 56% 0 in 128 W/m2
00:07 73.6 °F 57.4 °F 29.7 in NNW 9.8 mph 18.3 mph 57% 0 in 126 W/m2
00:12 73.4 °F 57.4 °F 29.7 in NNW 10.7 mph 18.3 mph 57% 0 in 122 W/m2
00:17 73.2 °F 57 °F 29.7 in NNW 9.2 mph 15.9 mph 57% 0 in 118 W/m2
00:22 73 °F 56.8 °F 29.7 in NNW 8.3 mph 15.2 mph 57% 0 in 113 W/m2
00:27 72.9 °F 56.8 °F 29.7 in North 11.4 mph 15.2 mph 57% 0 in 132 W/m2
00:32 73.4 °F 56.8 °F 29.7 in NNW 9.8 mph 15.2 mph 56% 0 in 292 W/m2
00:37 73.6 °F 56.8 °F 29.7 in NNW 9.8 mph 15.9 mph 56% 0 in 164 W/m2
00:42 73.2 °F 57 °F 29.7 in NNW 9.8 mph 16.8 mph 57% 0 in 229 W/m2
00:47 73.8 °F 57 °F 29.7 in North 9.8 mph 16.8 mph 56% 0 in 188 W/m2
00:52 73.6 °F 56.5 °F 29.7 in North 8.3 mph 15.9 mph 55% 0 in 138 W/m2
00:57 74.1 °F 57 °F 29.7 in NNW 10.7 mph 16.8 mph 55% 0 in 278 W/m2
01:02 74.5 °F 56.8 °F 29.7 in NNW 11.4 mph 18.3 mph 54% 0 in 228 W/m2
01:07 74.1 °F 57 °F 29.7 in North 10.7 mph 18.3 mph 55% 0 in 204 W/m2
01:12 74.1 °F 57 °F 29.7 in NNW 5.4 mph 18.3 mph 55% 0 in 144 W/m2
01:17 74.5 °F 56.8 °F 29.7 in NW 9.8 mph 18.3 mph 54% 0 in 241 W/m2
01:22 74.7 °F 56.5 °F 29.7 in NNW 9.2 mph 20.6 mph 53% 0 in 223 W/m2
01:27 74.5 °F 56.3 °F 29.7 in NNW 8.3 mph 20.6 mph 53% 0 in 212 W/m2
01:32 74.7 °F 56.5 °F 29.7 in NNW 11.4 mph 20.6 mph 53% 0 in 198 W/m2
01:37 74.5 °F 56.3 °F 29.7 in NNW 14.5 mph 23.5 mph 53% 0 in 175 W/m2
01:42 73.6 °F 56.5 °F 29.7 in NNW 9.2 mph 23.5 mph 55% 0 in 86 W/m2
01:47 72.7 °F 56.1 °F 29.7 in NNW 9.8 mph 18.3 mph 56% 0 in 90 W/m2
01:52 72.5 °F 55.9 °F 29.7 in NNW 11.4 mph 18.3 mph 56% 0 in 79 W/m2
01:57 72.3 °F 55.8 °F 29.7 in NW 12.1 mph 18.3 mph 56% 0 in 101 W/m2
02:02 72.3 °F 55.8 °F 29.7 in NW 14.5 mph 20.6 mph 56% 0 in 52 W/m2
02:07 72 °F 55.4 °F 29.7 in NW 9.2 mph 20.6 mph 56% 0 in 44 W/m2
02:12 71.8 °F 55.8 °F 29.7 in NNW 12.1 mph 19.7 mph 57% 0 in 36 W/m2
02:17 71.6 °F 55.6 °F 29.7 in NNW 9.8 mph 22.1 mph 57% 0 in 29 W/m2
02:22 71.4 °F 56.8 °F 29.7 in NNW 9.2 mph 22.1 mph 60% 0 in 22 W/m2
02:27 71.2 °F 56.7 °F 29.7 in NNW 9.2 mph 14.5 mph 60% 0 in 16 W/m2
02:32 71.1 °F 57 °F 29.7 in NNW 7.6 mph 14.5 mph 61% 0 in 10 W/m2
02:37 70.7 °F 57 °F 29.7 in NNW 9.2 mph 18.3 mph 62% 0 in 5 W/m2
02:42 70.5 °F 56.8 °F 29.7 in North 13.6 mph 18.3 mph 62% 0 in 2 W/m2
02:47 70.9 °F 56.8 °F 29.7 in NNW 10.7 mph 21.3 mph 61% 0 in 0 W/m2
02:52 70.5 °F 56.8 °F 29.7 in NNW 11.4 mph 21.3 mph 62% 0 in 0 W/m2
02:57 70.3 °F 56.7 °F 29.7 in NNW 8.3 mph 15.9 mph 62% 0 in 0 W/m2
03:02 70.2 °F 57 °F 29.7 in North 6.9 mph 15.9 mph 63% 0 in 0 W/m2
03:07 70.3 °F 56.7 °F 29.7 in North 9.8 mph 16.8 mph 62% 0 in 0 W/m2
03:12 70.3 °F 57.2 °F 29.7 in NNW 6.9 mph 16.8 mph 63% 0 in 0 W/m2
03:17 70.5 °F 56.8 °F 29.7 in NNW 11.4 mph 19.7 mph 62% 0 in 0 W/m2
03:22 70.7 °F 57 °F 29.7 in NNW 13 mph 20.6 mph 62% 0 in 0 W/m2
03:27 70.7 °F 57 °F 29.7 in NNW 7.6 mph 20.6 mph 62% 0 in 0 W/m2
03:32 70.3 °F 56.7 °F 29.7 in NNW 6.9 mph 19 mph 62% 0 in 0 W/m2
03:37 70.2 °F 56.7 °F 29.7 in NNW 10.7 mph 15.9 mph 62% 0 in 0 W/m2
03:42 70.3 °F 56.7 °F 29.7 in NNW 9.2 mph 15.9 mph 62% 0 in 0 W/m2
03:47 70.5 °F 56.8 °F 29.7 in NNW 6.9 mph 15.9 mph 62% 0 in 0 W/m2
03:52 70.3 °F 56.7 °F 29.7 in North 6 mph 15.2 mph 62% 0 in 0 W/m2
03:57 70.2 °F 56.7 °F 29.7 in North 6 mph 12.1 mph 62% 0 in 0 W/m2
04:02 70 °F 56.5 °F 29.7 in North 6 mph 9.8 mph 62% 0 in 0 W/m2
04:07 69.8 °F 56.7 °F 29.7 in North 6 mph 9.8 mph 63% 0 in 0 W/m2
04:12 69.8 °F 56.7 °F 29.7 in North 5.4 mph 9.8 mph 63% 0 in 0 W/m2
04:17 69.6 °F 56.8 °F 29.7 in North 3.8 mph 11.4 mph 64% 0 in 0 W/m2
04:22 69.6 °F 56.8 °F 29.7 in North 7.6 mph 11.4 mph 64% 0 in 0 W/m2
04:27 69.8 °F 56.7 °F 29.7 in NNW 6 mph 11.4 mph 63% 0 in 0 W/m2
04:32 70 °F 56.8 °F 29.7 in NNW 4.5 mph 13 mph 63% 0 in 0 W/m2
04:37 69.8 °F 56.7 °F 29.7 in NNW 7.6 mph 13 mph 63% 0 in 0 W/m2
04:42 69.8 °F 56.7 °F 29.7 in NNW 8.3 mph 11.4 mph 63% 0 in 0 W/m2
04:47 70 °F 56.8 °F 29.7 in NNW 6.9 mph 11.4 mph 63% 0 in 0 W/m2
04:52 70.2 °F 57 °F 29.7 in NNW 9.2 mph 13 mph 63% 0 in 0 W/m2
04:57 70.2 °F 57 °F 29.7 in NNW 8.3 mph 14.5 mph 63% 0 in 0 W/m2
05:02 70 °F 56.8 °F 29.7 in NNW 9.2 mph 14.5 mph 63% 0 in 0 W/m2
05:07 69.8 °F 56.7 °F 29.7 in NNW 7.6 mph 13.6 mph 63% 0 in 0 W/m2
05:12 69.6 °F 57.4 °F 29.7 in NNW 4.5 mph 14.5 mph 65% 0 in 0 W/m2
05:18 69.6 °F 57.4 °F 29.7 in NNW 5.4 mph 10.7 mph 65% 0 in 0 W/m2
05:23 69.4 °F 57.2 °F 29.7 in NNW 4.5 mph 10.7 mph 65% 0 in 0 W/m2
05:28 69.4 °F 57.2 °F 29.7 in NNW 4.5 mph 9.2 mph 65% 0 in 0 W/m2
05:33 69.4 °F 57.2 °F 29.7 in North 4.5 mph 8.3 mph 65% 0 in 0 W/m2
05:38 69.3 °F 57 °F 29.7 in North 3.8 mph 8.3 mph 65% 0 in 0 W/m2
05:43 69.3 °F 57 °F 29.7 in NNW 2.2 mph 8.3 mph 65% 0 in 0 W/m2
05:48 69.4 °F 57.2 °F 29.7 in North 5.4 mph 11.4 mph 65% 0 in 0 W/m2
05:53 69.6 °F 56.8 °F 29.7 in North 4.5 mph 11.4 mph 64% 0 in 0 W/m2
05:58 69.6 °F 56.8 °F 29.7 in North 6.9 mph 14.5 mph 64% 0 in 0 W/m2
06:03 69.6 °F 56.8 °F 29.7 in North 4.5 mph 14.5 mph 64% 0 in 0 W/m2
06:08 69.8 °F 56.7 °F 29.7 in North 3.8 mph 12.1 mph 63% 0 in 0 W/m2
06:13 69.8 °F 56.7 °F 29.7 in North 4.5 mph 12.1 mph 63% 0 in 0 W/m2
06:18 69.6 °F 57.4 °F 29.7 in North 3.8 mph 11.4 mph 65% 0 in 0 W/m2
06:23 69.3 °F 57 °F 29.7 in North 7.6 mph 11.4 mph 65% 0 in 0 W/m2
06:28 69.3 °F 57 °F 29.7 in NNW 5.4 mph 10.7 mph 65% 0 in 0 W/m2
06:33 69.6 °F 56.8 °F 29.7 in North 5.4 mph 14.5 mph 64% 0 in 0 W/m2
06:38 69.4 °F 56.8 °F 29.7 in North 5.4 mph 14.5 mph 64% 0 in 0 W/m2
06:43 69.3 °F 57 °F 29.7 in North 4.5 mph 12.1 mph 65% 0 in 0 W/m2
07:01 68.2 °F 57.6 °F 29.7 in NNW 4.5 mph 9.8 mph 69% 0 in 0 W/m2
07:07 68.2 °F 57.2 °F 29.7 in North 6.9 mph 11.4 mph 68% 0 in 0 W/m2
07:12 68.5 °F 57.6 °F 29.7 in North 6 mph 12.1 mph 68% 0 in 0 W/m2
07:17 68.5 °F 57.2 °F 29.7 in North 7.6 mph 12.1 mph 67% 0 in 0 W/m2
07:22 68.5 °F 57.2 °F 29.7 in North 6.9 mph 11.4 mph 67% 0 in 0 W/m2
07:27 68.5 °F 57.6 °F 29.7 in NNW 8.3 mph 11.4 mph 68% 0 in 0 W/m2
07:32 68.2 °F 57.6 °F 29.7 in NNW 4.5 mph 10.7 mph 69% 0 in 0 W/m2
07:37 67.8 °F 58.5 °F 29.7 in NNW 6 mph 10.7 mph 72% 0 in 0 W/m2
07:42 67.5 °F 58.8 °F 29.7 in NNW 7.6 mph 10.7 mph 74% 0 in 0 W/m2
07:47 67.1 °F 58.6 °F 29.7 in NNW 8.3 mph 13.6 mph 74% 0 in 0 W/m2
07:52 66.6 °F 58.8 °F 29.7 in North 4.5 mph 13.6 mph 76% 0 in 0 W/m2
07:57 66 °F 59.4 °F 29.7 in NNW 6 mph 12.1 mph 79% 0 in 0 W/m2
08:02 66 °F 59.7 °F 29.7 in NNW 6.9 mph 13 mph 80% 0 in 0 W/m2
08:07 66.2 °F 59.2 °F 29.7 in North 6 mph 13 mph 78% 0 in 0 W/m2
08:12 66.6 °F 59.2 °F 29.7 in NNW 6 mph 13.6 mph 77% 0 in 0 W/m2
08:17 67.1 °F 58.8 °F 29.7 in NNW 8.3 mph 15.2 mph 75% 0.01 in 0 W/m2
08:22 67.5 °F 58.8 °F 29.7 in NNW 6 mph 15.2 mph 74% 0.01 in 0 W/m2
08:27 67.3 °F 58.6 °F 29.7 in North 3.8 mph 13 mph 74% 0.01 in 0 W/m2
08:32 67.6 °F 58.6 °F 29.7 in North 6 mph 12.1 mph 73% 0.01 in 0 W/m2
08:37 67.6 °F 58.6 °F 29.7 in NNW 3.8 mph 12.1 mph 73% 0.01 in 0 W/m2
08:42 67.6 °F 58.6 °F 29.7 in NNW 3.8 mph 9.8 mph 73% 0.01 in 0 W/m2
08:47 67.6 °F 58.6 °F 29.7 in NNW 4.5 mph 6.9 mph 73% 0.01 in 0 W/m2
08:52 67.6 °F 58.3 °F 29.7 in NNW 6.9 mph 9.2 mph 72% 0.01 in 0 W/m2
08:57 67.8 °F 58.5 °F 29.7 in NNW 5.4 mph 9.8 mph 72% 0.01 in 0 W/m2
09:02 67.8 °F 58.1 °F 29.7 in North 6.9 mph 11.4 mph 71% 0.01 in 0 W/m2
09:07 68 °F 57.9 °F 29.7 in North 6.9 mph 12.1 mph 70% 0.01 in 0 W/m2
09:12 68.2 °F 57.6 °F 29.7 in North 6 mph 12.1 mph 69% 0.01 in 0 W/m2
09:17 68.2 °F 57.6 °F 29.7 in North 4.5 mph 12.1 mph 69% 0 in 0 W/m2
09:22 68.4 °F 57.7 °F 29.7 in North 6 mph 13 mph 69% 0 in 0 W/m2
09:27 68.4 °F 57.7 °F 29.7 in NNW 4.5 mph 13 mph 69% 0 in 0 W/m2
09:32 68.2 °F 57.6 °F 29.7 in NNW 7.6 mph 11.4 mph 69% 0 in 0 W/m2
09:37 68.4 °F 57.7 °F 29.7 in NW 3.8 mph 11.4 mph 69% 0 in 0 W/m2
09:42 68 °F 57.6 °F 29.7 in NNW 4.5 mph 9.8 mph 69% 0 in 0 W/m2
09:47 68.2 °F 57.6 °F 29.7 in North 1.6 mph 8.3 mph 69% 0 in 0 W/m2
09:52 68.4 °F 57.7 °F 29.7 in North 5.4 mph 8.3 mph 69% 0 in 0 W/m2
09:57 68.4 °F 57.4 °F 29.7 in NNE 1.6 mph 8.3 mph 68% 0 in 0 W/m2
10:02 68 °F 57.6 °F 29.7 in NNE 1.6 mph 6.9 mph 69% 0 in 0 W/m2
10:07 67.8 °F 57.7 °F 29.7 in NNE 3.8 mph 8.3 mph 70% 0 in 0 W/m2
10:12 67.8 °F 58.1 °F 29.7 in North 8.3 mph 10.7 mph 71% 0 in 0 W/m2
10:17 67.8 °F 58.1 °F 29.7 in North 1.6 mph 10.7 mph 71% 0 in 0 W/m2
10:23 67.6 °F 57.9 °F 29.7 in North 5.4 mph 9.8 mph 71% 0 in 0 W/m2
10:28 67.6 °F 57.9 °F 29.7 in North 3.8 mph 7.6 mph 71% 0 in 0 W/m2
10:33 67.6 °F 57.9 °F 29.7 in NNE 4.5 mph 7.6 mph 71% 0 in 0 W/m2
10:38 67.6 °F 57.9 °F 29.7 in North 3.1 mph 7.6 mph 71% 0 in 0 W/m2
10:43 67.5 °F 57.7 °F 29.7 in North 4.5 mph 7.6 mph 71% 0 in 0 W/m2
10:48 67.6 °F 57.6 °F 29.7 in North 3.1 mph 7.6 mph 70% 0 in 0 W/m2
10:53 67.6 °F 57.6 °F 29.7 in North 5.4 mph 7.6 mph 70% 0 in 0 W/m2
10:58 67.3 °F 57.6 °F 29.7 in North 3.1 mph 7.6 mph 71% 0 in 0 W/m2
11:03 66.7 °F 57.4 °F 29.7 in North 1.6 mph 6 mph 72% 0 in 0 W/m2
11:08 66.7 °F 57.4 °F 29.7 in North 2.2 mph 5.4 mph 72% 0 in 0 W/m2
11:13 66.7 °F 57.7 °F 29.7 in NE 3.1 mph 9.2 mph 73% 0 in 0 W/m2
11:18 66.7 °F 57.7 °F 29.7 in NNE 3.1 mph 9.2 mph 73% 0 in 0 W/m2
11:23 66.6 °F 57.7 °F 29.7 in North 4.5 mph 7.6 mph 73% 0 in 0 W/m2
11:28 66.7 °F 57.7 °F 29.7 in North 4.5 mph 9.8 mph 73% 0 in 0 W/m2
11:33 67.3 °F 57.6 °F 29.7 in North 5.4 mph 9.8 mph 71% 0 in 0 W/m2
11:53 68.4 °F 57.4 °F 29.7 in NNW 10.7 mph 13 mph 68% 0 in 6 W/m2
11:58 68.7 °F 57.4 °F 29.7 in NNW 3.8 mph 13 mph 67% 0 in 10 W/m2
12:03 68.9 °F 57.6 °F 29.7 in NNW 6 mph 13 mph 67% 0 in 14 W/m2
12:08 69.1 °F 57.7 °F 29.7 in NNW 6 mph 12.1 mph 67% 0 in 20 W/m2
12:13 69.4 °F 57.6 °F 29.7 in NNW 6 mph 14.5 mph 66% 0 in 26 W/m2
12:18 69.3 °F 57.4 °F 29.7 in NW 6 mph 14.5 mph 66% 0 in 27 W/m2
12:23 69.1 °F 57.7 °F 29.7 in NNW 5.4 mph 9.8 mph 67% 0 in 26 W/m2
12:28 69.1 °F 57.7 °F 29.7 in NNW 6 mph 9.8 mph 67% 0 in 36 W/m2
12:33 69.3 °F 57.9 °F 29.7 in North 4.5 mph 9.8 mph 67% 0 in 58 W/m2
12:38 69.8 °F 57.6 °F 29.7 in North 6 mph 9.8 mph 65% 0 in 73 W/m2
12:43 70.2 °F 57.9 °F 29.7 in North 3.8 mph 9.8 mph 65% 0 in 92 W/m2
12:49 70.3 °F 57.6 °F 29.7 in North 3.8 mph 10.7 mph 64% 0 in 83 W/m2
12:54 70.5 °F 58.3 °F 29.7 in North 3.1 mph 10.7 mph 65% 0 in 125 W/m2
12:59 71.1 °F 58.3 °F 29.7 in North 3.1 mph 9.2 mph 64% 0 in 130 W/m2
13:04 71.4 °F 58.3 °F 29.7 in NNW 5.4 mph 9.2 mph 63% 0 in 86 W/m2
13:09 71.2 °F 58.5 °F 29.7 in NNW 5.4 mph 9.2 mph 64% 0 in 73 W/m2
13:14 70.7 °F 58.5 °F 29.7 in NNW 3.1 mph 7.6 mph 65% 0 in 84 W/m2
13:19 70.5 °F 58.6 °F 29.7 in NNW 3.8 mph 7.6 mph 66% 0 in 63 W/m2
13:24 70.9 °F 58.6 °F 29.7 in NNW 3.8 mph 8.3 mph 65% 0 in 183 W/m2
13:29 71.4 °F 58.6 °F 29.7 in NNW 5.4 mph 9.2 mph 64% 0 in 211 W/m2
13:35 71.8 °F 58.5 °F 29.7 in NNW 6.9 mph 9.2 mph 63% 0 in 82 W/m2
13:40 71.4 °F 58.6 °F 29.7 in NNW 6 mph 9.8 mph 64% 0 in 130 W/m2
13:45 71.4 °F 59.2 °F 29.7 in NNW 6 mph 10.7 mph 65% 0 in 125 W/m2
13:50 71.6 °F 58.8 °F 29.7 in NNW 5.4 mph 10.7 mph 64% 0 in 138 W/m2
13:55 71.8 °F 59 °F 29.7 in NNW 6 mph 10.7 mph 64% 0 in 142 W/m2
14:00 71.8 °F 59 °F 29.7 in NNW 5.4 mph 10.7 mph 64% 0 in 160 W/m2
14:05 72 °F 59.2 °F 29.7 in NNW 7.6 mph 11.4 mph 64% 0 in 145 W/m2
14:10 72 °F 59.2 °F 29.7 in NNW 6 mph 11.4 mph 64% 0 in 139 W/m2
14:15 72.1 °F 59.4 °F 29.7 in NNW 7.6 mph 15.2 mph 64% 0 in 192 W/m2
14:20 72.7 °F 59.4 °F 29.7 in NNW 7.6 mph 15.2 mph 63% 0 in 219 W/m2
14:25 73.2 °F 59.5 °F 29.7 in NW 9.2 mph 14.5 mph 62% 0 in 212 W/m2
14:30 73.2 °F 59.5 °F 29.7 in NNW 6 mph 15.2 mph 62% 0 in 164 W/m2
14:36 73.4 °F 59.5 °F 29.7 in NNW 12.1 mph 15.9 mph 62% 0 in 136 W/m2
14:41 73.2 °F 59.9 °F 29.7 in NW 4.5 mph 15.9 mph 63% 0 in 142 W/m2
14:46 73.2 °F 59.5 °F 29.8 in NNW 5.4 mph 15.9 mph 62% 0 in 165 W/m2
14:51 73.2 °F 59.5 °F 29.7 in NNW 10.7 mph 17.4 mph 62% 0 in 184 W/m2
14:56 73.2 °F 59.9 °F 29.8 in NW 8.3 mph 17.4 mph 63% 0 in 196 W/m2
15:01 73.2 °F 59.5 °F 29.8 in NW 7.6 mph 17.4 mph 62% 0 in 149 W/m2
15:06 73.2 °F 59.9 °F 29.8 in NNW 8.3 mph 16.8 mph 63% 0 in 143 W/m2
15:11 73.2 °F 59.5 °F 29.8 in NW 7.6 mph 13.6 mph 62% 0 in 132 W/m2
15:16 73.2 °F 59.9 °F 29.8 in NW 7.6 mph 13 mph 63% 0 in 126 W/m2
15:21 73.2 °F 59.9 °F 29.8 in NNW 5.4 mph 15.2 mph 63% 0 in 120 W/m2
15:26 73.2 °F 59.9 °F 29.8 in NNW 6 mph 15.2 mph 63% 0 in 132 W/m2
15:31 73.4 °F 60.4 °F 29.8 in NNW 5.4 mph 12.1 mph 64% 0 in 130 W/m2
15:36 73.6 °F 60.6 °F 29.8 in NNW 3.1 mph 11.4 mph 64% 0 in 131 W/m2
15:42 73.6 °F 60.6 °F 29.8 in North 6 mph 10.7 mph 64% 0 in 152 W/m2
15:47 73.8 °F 61 °F 29.8 in North 4.5 mph 10.7 mph 64% 0 in 157 W/m2
15:52 73.9 °F 61 °F 29.8 in North 4.5 mph 9.8 mph 64% 0 in 153 W/m2
15:57 74.1 °F 61.5 °F 29.8 in North 6.9 mph 9.2 mph 65% 0 in 133 W/m2
16:02 74.1 °F 61.5 °F 29.8 in NNW 5.4 mph 9.8 mph 65% 0 in 147 W/m2
16:21 74.7 °F 60.8 °F 29.8 in NNW 7.6 mph 15.2 mph 62% 0 in 192 W/m2
16:26 75 °F 61.2 °F 29.8 in NW 7.6 mph 12.1 mph 62% 0 in 160 W/m2
16:31 74.8 °F 61 °F 29.8 in NW 4.5 mph 11.4 mph 62% 0 in 136 W/m2
16:36 74.7 °F 60.4 °F 29.8 in NW 5.4 mph 11.4 mph 61% 0 in 134 W/m2
16:41 74.7 °F 60.8 °F 29.8 in NNW 3.8 mph 9.2 mph 62% 0 in 125 W/m2
16:46 74.8 °F 61.3 °F 29.8 in NNW 3.8 mph 7.6 mph 63% 0 in 131 W/m2
16:51 74.8 °F 61 °F 29.8 in NNW 4.5 mph 6 mph 62% 0 in 154 W/m2
16:56 75.2 °F 61 °F 29.8 in NW 3.1 mph 6 mph 61% 0 in 163 W/m2
17:01 75.7 °F 61.9 °F 29.8 in NW 0.7 mph 5.4 mph 62% 0 in 226 W/m2
17:06 76.6 °F 62.2 °F 29.8 in WNW 2.2 mph 3.8 mph 61% 0 in 210 W/m2
17:11 76.6 °F 61.3 °F 29.8 in WSW 6.9 mph 9.2 mph 59% 0 in 240 W/m2
17:16 75.4 °F 62.4 °F 29.8 in SW 9.8 mph 14.5 mph 64% 0 in 200 W/m2
17:21 73 °F 62.8 °F 29.8 in SSW 6.9 mph 14.5 mph 70% 0 in 184 W/m2
17:26 71.8 °F 62.2 °F 29.8 in SSW 11.4 mph 13.6 mph 72% 0 in 134 W/m2
17:31 70.3 °F 62.1 °F 29.8 in South 13 mph 26.6 mph 75% 0 in 109 W/m2
17:36 66.4 °F 60.6 °F 29.8 in South 13 mph 26.6 mph 82% 0 in 213 W/m2
17:41 65.1 °F 61.2 °F 29.8 in SSW 14.5 mph 25.9 mph 87% 0 in 300 W/m2
17:46 64.9 °F 61.3 °F 29.8 in SSW 13.6 mph 22.1 mph 88% 0 in 260 W/m2
17:51 65.1 °F 60.4 °F 29.8 in SSW 9.8 mph 20.6 mph 85% 0 in 238 W/m2
17:56 65.3 °F 60.4 °F 29.8 in South 11.4 mph 22.8 mph 84% 0 in 331 W/m2
18:01 66 °F 60.4 °F 29.8 in South 10.7 mph 22.8 mph 82% 0 in 408 W/m2
18:06 66.6 °F 60.3 °F 29.8 in South 9.8 mph 19.7 mph 80% 0 in 304 W/m2
18:11 66.4 °F 60.1 °F 29.8 in South 9.2 mph 19.7 mph 80% 0 in 174 W/m2
18:16 65.7 °F 60.1 °F 29.9 in South 7.6 mph 17.4 mph 82% 0 in 125 W/m2
18:21 65.5 °F 59.9 °F 29.9 in South 13 mph 17.4 mph 82% 0 in 111 W/m2
18:26 65.1 °F 59.5 °F 29.9 in SSW 6.9 mph 15.9 mph 82% 0 in 114 W/m2
18:31 65.3 °F 60.1 °F 29.9 in SSW 9.2 mph 15.2 mph 83% 0 in 98 W/m2
18:37 64.8 °F 59.7 °F 29.9 in SW 13 mph 16.8 mph 84% 0 in 101 W/m2
18:42 64.6 °F 60.1 °F 29.9 in SW 11.4 mph 19 mph 85% 0 in 97 W/m2
18:47 64.2 °F 59.4 °F 29.9 in SSW 12.1 mph 19 mph 84% 0 in 136 W/m2
18:52 63.9 °F 59.5 °F 29.9 in South 9.2 mph 19 mph 86% 0 in 91 W/m2
18:57 63.9 °F 59.4 °F 29.9 in South 9.2 mph 16.8 mph 85% 0 in 122 W/m2
19:02 63.9 °F 58.6 °F 29.9 in South 10.7 mph 18.3 mph 83% 0 in 142 W/m2
19:07 63.9 °F 59 °F 29.9 in South 12.1 mph 20.6 mph 84% 0 in 109 W/m2
19:12 63.3 °F 58.5 °F 29.9 in SSW 13.6 mph 20.6 mph 84% 0 in 103 W/m2
19:17 63.1 °F 58.6 °F 29.9 in SSW 8.3 mph 18.3 mph 85% 0 in 116 W/m2
19:22 63.3 °F 59.2 °F 29.9 in SSW 7.6 mph 17.4 mph 86% 0 in 99 W/m2
19:27 63 °F 59 °F 29.9 in SSW 8.3 mph 15.9 mph 87% 0 in 88 W/m2
19:32 62.8 °F 58.8 °F 29.9 in South 13 mph 17.4 mph 87% 0 in 92 W/m2
19:37 62.4 °F 59.2 °F 29.9 in South 9.2 mph 19 mph 89% 0 in 107 W/m2
19:42 62.1 °F 59.4 °F 29.9 in SSW 9.8 mph 19 mph 91% 0 in 136 W/m2
19:47 61.5 °F 59.2 °F 29.9 in SSW 9.8 mph 19 mph 92% 0.01 in 143 W/m2
19:52 61.5 °F 59.7 °F 29.9 in SSW 11.4 mph 19 mph 94% 0.02 in 119 W/m2
19:57 61.2 °F 59.4 °F 29.9 in SW 9.8 mph 15.9 mph 94% 0.02 in 141 W/m2
20:02 60.8 °F 59.2 °F 29.9 in SSW 9.8 mph 17.4 mph 94% 0.04 in 107 W/m2
20:07 60.6 °F 59.5 °F 29.9 in SSW 12.1 mph 17.4 mph 96% 0.04 in 141 W/m2
20:12 60.6 °F 59.7 °F 29.9 in SW 10.7 mph 19 mph 97% 0.05 in 112 W/m2
20:17 60.6 °F 59.7 °F 29.9 in SW 15.2 mph 20.6 mph 97% 0.05 in 171 W/m2
20:22 60.3 °F 59.2 °F 29.9 in SSW 11.4 mph 20.6 mph 96% 0.05 in 162 W/m2
20:27 60.4 °F 59.4 °F 29.9 in SSW 5.4 mph 20.6 mph 96% 0.05 in 102 W/m2
20:32 60.1 °F 59 °F 29.9 in SSW 9.8 mph 17.4 mph 96% 0.06 in 141 W/m2
20:37 60.1 °F 59 °F 29.9 in SSW 13 mph 17.4 mph 96% 0.06 in 164 W/m2
20:42 60.3 °F 59.4 °F 29.9 in SSW 12.1 mph 17.4 mph 97% 0.05 in 242 W/m2
20:47 60.6 °F 59.7 °F 29.9 in SSW 7.6 mph 17.4 mph 97% 0.05 in 296 W/m2
20:52 61 °F 59.5 °F 29.9 in SW 11.4 mph 16.8 mph 95% 0.05 in 324 W/m2
20:57 61 °F 59.4 °F 29.9 in SW 10.7 mph 17.4 mph 94% 0.05 in 289 W/m2
21:02 60.8 °F 59.2 °F 29.9 in WSW 8.3 mph 18.3 mph 94% 0.04 in 162 W/m2
21:07 60.6 °F 58.8 °F 29.9 in SSW 13.6 mph 19.7 mph 94% 0.04 in 266 W/m2
21:12 61 °F 58.6 °F 29.9 in South 8.3 mph 19.7 mph 92% 0.02 in 224 W/m2
21:17 60.8 °F 57.9 °F 29.9 in SSW 9.2 mph 18.3 mph 90% 0.02 in 164 W/m2
21:22 61 °F 57.7 °F 29.9 in SSW 9.2 mph 17.4 mph 89% 0.02 in 147 W/m2
21:27 60.6 °F 57.7 °F 29.9 in SSW 9.8 mph 15.9 mph 90% 0.02 in 122 W/m2
21:32 60.6 °F 57.7 °F 29.9 in SW 9.8 mph 15.9 mph 90% 0.01 in 149 W/m2
21:37 60.8 °F 57.2 °F 30 in SSW 8.3 mph 15.9 mph 88% 0.01 in 148 W/m2
21:42 60.6 °F 57.4 °F 29.9 in SSW 9.8 mph 17.4 mph 89% 0.01 in 115 W/m2
21:47 60.6 °F 57.4 °F 30 in SSW 9.2 mph 17.4 mph 89% 0.01 in 145 W/m2
21:52 60.6 °F 57 °F 29.9 in SSW 13 mph 18.3 mph 88% 0 in 227 W/m2
21:57 61 °F 56.8 °F 29.9 in SSW 9.8 mph 18.3 mph 86% 0 in 232 W/m2
22:02 61.2 °F 57 °F 29.9 in SSW 9.2 mph 17.4 mph 86% 0 in 215 W/m2
22:07 60.8 °F 56.7 °F 29.9 in SSW 9.2 mph 16.8 mph 86% 0 in 261 W/m2
22:13 60.6 °F 57 °F 29.9 in SSW 9.8 mph 15.9 mph 88% 0 in 246 W/m2
22:18 61 °F 56.1 °F 29.9 in SSW 9.2 mph 15.9 mph 84% 0 in 167 W/m2
22:24 61.5 °F 55.9 °F 29.9 in SSW 6 mph 15.9 mph 82% 0 in 184 W/m2
22:29 61.7 °F 56.5 °F 29.9 in SSW 8.3 mph 13.6 mph 83% 0 in 177 W/m2
22:35 62.2 °F 56.5 °F 29.9 in SSW 6 mph 13.6 mph 81% 0 in 206 W/m2
22:40 62.6 °F 55.9 °F 29.9 in SSW 9.2 mph 13.6 mph 79% 0 in 208 W/m2
22:45 62.6 °F 55.9 °F 29.9 in SW 6.9 mph 14.5 mph 79% 0 in 186 W/m2
22:50 62.2 °F 54.7 °F 29.9 in SSW 6.9 mph 16.8 mph 76% 0 in 214 W/m2
22:55 62.4 °F 55 °F 29.9 in SSW 7.6 mph 16.8 mph 77% 0 in 183 W/m2
23:12 62.2 °F 55.9 °F 29.9 in SSW 9.2 mph 15.2 mph 80% 0 in 153 W/m2
23:17 62.2 °F 55.9 °F 30 in SSW 9.8 mph 17.4 mph 80% 0 in 157 W/m2
23:22 61.9 °F 55.2 °F 30 in SSW 9.8 mph 17.4 mph 79% 0 in 162 W/m2
23:27 61.9 °F 55 °F 29.9 in South 8.3 mph 17.4 mph 78% 0 in 124 W/m2
23:32 61.9 °F 55.8 °F 29.9 in South 11.4 mph 17.4 mph 80% 0 in 206 W/m2
23:37 62.1 °F 55.8 °F 29.9 in South 9.2 mph 15.2 mph 80% 0 in 149 W/m2
23:42 61.9 °F 56.3 °F 29.9 in SSW 9.8 mph 15.2 mph 82% 0 in 125 W/m2
23:47 61.9 °F 55.9 °F 30 in SSW 5.4 mph 15.2 mph 81% 0 in 123 W/m2
23:52 61.9 °F 55.8 °F 29.9 in South 4.5 mph 13.6 mph 80% 0 in 163 W/m2
23:57 61.9 °F 55.9 °F 29.9 in South 5.4 mph 12.1 mph 81% 0 in 106 W/m2
Northern Hawkes Bay. New Zealand Historic Data
Compliments of Weather Underground - 2 mb